This is the latest recevied weather packets stored in our database for station/object BRIVER. If no packets are shown the sender has not sent any weather packets the latest 10 day(s).
| Time | Temp. | Humidity | Pressure | Rain* | Wind** | Luminosity | Snow |
|---|---|---|---|---|---|---|---|
| 1777158349 | 12.22° C | 35% | 1006.8 hPa | 0 mm | - | - | - |
| 1777158290 | 12.22° C | 34% | 1006.7 hPa | 0 mm | - | - | - |
| 1777158049 | 11.67° C | 32% | 1006.8 hPa | 0 mm | - | - | - |
| 1777157749 | 11.67° C | 34% | 1006.9 hPa | 0 mm | - | - | - |
| 1777157449 | 12.22° C | 30% | 1006.9 hPa | 0 mm | - | - | - |
| 1777157210 | 13.33° C | 32% | 1007 hPa | 0 mm | - | - | - |
| 1777157149 | 13.33° C | 33% | 1007 hPa | 0 mm | - | - | - |
| 1777156849 | 13.33° C | 31% | 1007 hPa | 0 mm | - | - | - |
| 1777156670 | 13.33° C | 32% | 1007.1 hPa | 0 mm | - | - | - |
| 1777156549 | 13.33° C | 35% | 1007 hPa | 0 mm | - | - | - |
| 1777156249 | 13.33° C | 31% | 1007.2 hPa | 0 mm | - | - | - |
| 1777155949 | 12.78° C | 32% | 1007.2 hPa | 0 mm | - | - | - |
| 1777155649 | 12.78° C | 33% | 1007.2 hPa | 0 mm | - | - | - |
| 1777155590 | 12.78° C | 32% | 1007.3 hPa | 0 mm | - | - | - |
| 1777155349 | 12.78° C | 34% | 1007.4 hPa | 0 mm | - | - | - |
| 1777155049 | 13.33° C | 26% | 1007.5 hPa | 0 mm | - | - | - |
| 1777154749 | 13.89° C | 32% | 1007.5 hPa | 0 mm | - | - | - |
| 1777154449 | 13.33° C | 32% | 1007.5 hPa | 0 mm | - | - | - |
| 1777154149 | 13.33° C | 32% | 1007.6 hPa | 0 mm | - | - | - |
| 1777153970 | 13.33° C | 33% | 1007.5 hPa | 0 mm | - | - | - |
| 1777153849 | 12.78° C | 32% | 1007.6 hPa | 0 mm | - | - | - |
| 1777153549 | 12.22° C | 36% | 1007.4 hPa | 0 mm | - | - | - |
| 1777153430 | 11.67° C | 37% | 1007.5 hPa | 0 mm | - | - | - |
| 1777153249 | 11.11° C | 31% | 1007.5 hPa | 0 mm | - | - | - |
| 1777152949 | 11.11° C | 31% | 1007.6 hPa | 0 mm | - | - | - |
* Rain latest hour (hover to see other rain measurements)
** Current wind speed in m/s (hover to see current wind gust speed)